DW0542 Weather Reports


time (UTC)temp
C
wind
direction
speed
KPH
gust
KPH
rain 1hr
cm
rain 24hr
cm
rain mn
cm
humidity
%
barometer
mb
20260906163018 17 326 0.0 12.9 0.00 0.43 0.43 77 1015.4
20260906161522 17 324 0.0 12.9 0.00 0.43 0.43 76 1015.5
20260906160016 17 324 0.0 0.0 0.00 0.43 0.43 76 1015.6
20260906154529 17 324 0.0 6.4 0.00 0.43 0.43 77 1015.7
20260906153055 17 323 0.0 0.0 0.00 0.43 0.43 77 1015.7
20260906151543 17 323 0.0 8.0 0.00 0.43 0.43 79 1015.7
20260906150054 16 322 0.0 9.7 0.00 0.43 0.43 81 1015.8
20260906144540 16 322 0.0 0.0 0.00 0.43 0.43 84 1015.7
20260906143043 15 322 0.0 8.0 0.03 0.43 0.43 84 1015.7
20260906141538 15 324 0.0 9.7 0.03 0.43 0.43 86 1015.9
20260906140008 15 323 0.0 1.6 0.03 0.43 0.43 86 1015.8
20260906134507 15 322 3.2 8.0 0.00 0.41 0.41 86 1015.9
20260906133013 14 349 1.6 6.4 0.00 0.41 0.41 86 1015.7
20260906131506 14 349 0.0 0.0 0.00 0.41 0.41 87 1015.7
20260906130008 14 349 0.0 1.6 0.03 0.41 0.41 86 1015.7
20260906124501 14 349 0.0 0.0 0.05 0.41 0.41 86 1015.6
20260906123102 13 349 0.0 0.0 0.05 0.41 0.41 87 1015.4
20260906121556 13 349 0.0 0.0 0.08 0.41 0.41 87 1015.4
20260906120119 13 349 0.0 6.4 0.08 0.38 0.38 87 1015.4
20260906114602 13 62 0.0 0.0 0.10 0.36 0.36 86 1015.3
20260906113020 13 62 0.0 0.0 0.13 0.36 0.36 86 1014.9
20260906110044 13 328 0.0 4.8 0.10 0.30 0.30 86 1014.5
20260906104544 15 321 0.0 3.2 0.05 0.25 0.25 87 1014.4
20260906103046 15 321 0.0 6.4 0.03 0.23 0.23 87 1014.1
20260906101536 15 321 0.0 0.0 0.03 0.20 0.20 87 1013.7
20260906100033 15 321 0.0 0.0 0.03 0.20 0.20 87 1013.6
20260906094544 15 321 0.0 0.0 0.03 0.20 0.20 87 1013.5
20260906093037 15 321 3.2 9.7 0.03 0.20 0.20 87 1013.4
20260906091535 15 320 0.0 8.0 0.00 0.18 0.18 87 1013.2
20260906090026 15 317 0.0 0.0 0.00 0.18 0.18 87 1013.1
20260906084528 15 317 0.0 4.8 0.00 0.18 0.18 87 1013.0
20260906083023 15 317 0.0 0.0 0.00 0.18 0.18 87 1013.0
20260906081522 16 316 1.6 9.7 0.00 0.18 0.18 87 1012.9
20260906080022 15 312 1.6 6.4 0.00 0.18 0.18 87 1012.9
20260906074520 16 310 0.0 9.7 0.03 0.18 0.18 87 1012.8
20260906073015 15 339 0.0 9.7 0.03 0.18 0.18 87 1012.8
20260906071515 15 339 0.0 8.0 0.03 0.18 0.18 87 1012.8
20260906070020 16 339 3.2 9.7 0.03 0.18 0.18 87 1012.8
20260906064511 15 357 0.0 0.0 0.00 0.15 0.15 87 1012.8
20260906063011 15 1 0.0 0.0 0.00 0.15 0.15 87 1012.9
20260906061511 15 18 0.0 1.6 0.00 0.15 0.15 87 1013.0
20260906060009 15 36 0.0 0.0 0.00 0.15 0.15 87 1013.0
20260906054506 15 36 0.0 0.0 0.00 0.15 0.15 87 1012.9
20260906053035 15 36 0.0 0.0 0.00 0.15 0.15 87 1012.8
20260906051537 15 36 0.0 0.0 0.00 0.15 0.15 87 1012.9
20260906050038 15 36 0.0 0.0 0.00 0.15 0.15 87 1013.0
20260906044531 15 36 0.0 0.0 0.03 0.15 0.15 87 1013.0
20260906043030 15 36 0.0 0.0 0.03 0.15 0.15 87 1012.9
20260906041529 15 36 0.0 0.0 0.03 0.15 0.15 87 1013.0
20260906040128 16 36 0.0 3.2 0.05 0.15 0.15 87 1013.1
20260906034525 15 55 0.0 4.8 0.08 0.13 0.13 87 1013.1
20260906033023 15 76 0.0 4.8 0.08 0.13 0.13 87 1013.0
20260906031554 15 76 0.0 0.0 0.08 0.13 0.13 86 1012.9
20260906030018 15 76 0.0 0.0 0.05 0.10 0.10 86 1012.9
20260906024538 15 76 0.0 3.2 0.00 0.05 0.05 86 1012.9
20260906023020 16 76 0.0 0.0 0.00 0.05 0.05 86 1012.8
20260906021515 16 76 0.0 0.0 0.00 0.05 0.05 86 1012.6
20260906020115 15 76 0.0 0.0 0.00 0.05 0.05 86 1012.5
20260906014543 16 76 0.0 0.0 0.00 0.05 0.05 86 1012.5
20260906013042 16 76 0.0 0.0 0.03 0.05 0.05 86 1012.6
20260906011539 16 76 0.0 0.0 0.05 0.05 0.05 86 1012.7
20260906010046 16 76 0.0 0.0 0.05 0.05 0.05 85 1012.7
20260906004534 16 76 0.0 0.0 0.05 0.05 0.05 85 1012.8
20260906003031 17 76 0.0 1.6 0.03 0.03 0.03 83 1012.5
20260906001556 17 80 0.0 6.4 0.00 0.00 0.00 82 1012.3
20260905234554 18 90 0.0 0.0 0.00 0.00 0.00 81 1011.7
20260905233051 18 90 0.0 3.2 0.00 0.00 0.00 81 1011.4
20260905231546 18 89 0.0 0.0 0.00 0.00 0.00 81 1011.4
20260905230045 18 89 0.0 0.0 0.00 0.00 0.00 82 1011.3
20260905224540 19 89 0.0 0.0 0.00 0.00 0.00 82 1011.3
20260905223039 19 89 0.0 0.0 0.00 0.00 0.00 82 1011.3
20260905221537 19 89 0.0 0.0 0.00 0.00 0.00 81 1011.2
20260905220039 19 89 0.0 0.0 0.00 0.00 0.00 81 1011.0
20260905213110 20 83 0.0 1.6 0.00 0.00 0.00 79 1010.5
20260905210028 20 331 0.0 1.6 0.00 0.00 0.00 82 1010.3
20260905204525 20 328 0.0 0.0 0.00 0.00 0.00 81 1010.2
20260905203025 19 328 0.0 0.0 0.00 0.00 0.00 81 1010.3
20260905201531 19 328 0.0 0.0 0.00 0.00 0.00 81 1010.2
20260905200027 19 328 0.0 9.7 0.00 0.00 0.00 81 1010.1
20260905194520 19 326 0.0 6.4 0.00 0.00 0.00 80 1010.1
20260905193018 19 130 0.0 0.0 0.00 0.00 0.00 80 1009.9
20260905191518 20 130 0.0 1.6 0.00 0.00 0.00 78 1009.9
20260905190018 21 344 0.0 9.7 0.00 0.00 0.00 73 1010.0
20260905184514 21 290 0.0 0.0 0.00 0.00 0.00 71 1009.7
20260905183020 21 290 0.0 0.0 0.00 0.00 0.00 73 1009.7
20260905181512 21 290 0.0 0.0 0.00 0.00 0.00 74 1009.9
20260905180011 21 290 0.0 0.0 0.00 0.00 0.00 73 1009.9
20260905174545 22 8 0.0 3.2 0.00 0.00 0.00 72 1009.8
20260905173055 22 124 0.0 9.7 0.00 0.00 0.00 72 1009.6
20260905171539 22 327 0.0 6.4 0.00 0.00 0.00 74 1009.6
20260905170039 21 328 0.0 3.2 0.00 0.00 0.00 74 1009.6
20260905164536 21 326 0.0 12.9 0.00 0.00 0.00 73 1009.4